User: anonymous   Login
Location: Bangkok
(13.7500°N, 100.5170°E)
Time: 15:24:46
(UTC+07:00)
Language:

ERBS - Orbit

View from above orbital plane
View from above orbital plane
View from above satellite
View from above satellite

Ground track
Ground track

The orbit data is extracted from the following two-line orbital elements,

1 15354U 84108B   18145.38845643 +.00002176 +00000-0 +52434-4 0  9997
2 15354 057.0067 102.4785 0014840 056.3166 303.9302 15.45871296850816
Epoch (UTC): 25 May 2018 09:19:22
Eccentricity: 0.0014840
inclination: 57.0067°
perigee height: 419 km
apogee height: 439 km
right ascension of ascending node: 102.4785°
argument of perigee: 56.3166°
revolutions per day: 15.45871296
mean anomaly at epoch: 303.9302°
orbit number at epoch: 85081

The dashed part of the orbit path shows where the satellite is in the earth's shadow,  

DLR